RYR1CV LEBL-LPPR

Flight info

Callsign RYR1CV
Flight time N/A
Altitude 33000
Route SENIA DCT DORMI DCT CRETA DCT NEXAS DCT DISVU DCT ADUXO DCT CJN N733 ZMR L155 ADORO DCT CANAR DCT INKIT
Aircraft B738/M-SDE3FGILRWY/SB1

Departure

Time 2026-05-05 11:42
Airport Josep Tarradellas Barcelona-El Prat Airport (LEBL)

Arrival

Time N/A
Airport Francisco de Sá Carneiro Airport (LPPR)
Time Latitude Longitude Altitude Speed Heading
2026-05-05 11:17 41.30230 2.07791 47 ft 0 kts 276°
2026-05-05 11:30 41.30229 2.07805 20 ft 3 kts 278°
2026-05-05 11:30 41.30224 2.07829 22 ft 2 kts 298°
2026-05-05 11:30 41.30215 2.07848 21 ft 3 kts 320°
2026-05-05 11:31 41.30199 2.07862 23 ft 3 kts 335°
2026-05-05 11:31 41.30183 2.07872 20 ft 3 kts 335°
2026-05-05 11:31 41.30167 2.07881 20 ft 3 kts 335°
2026-05-05 11:31 41.30150 2.07892 21 ft 3 kts 335°
2026-05-05 11:32 41.30131 2.07901 19 ft 3 kts 354°
2026-05-05 11:32 41.30115 2.07899 21 ft 3 kts 43°
2026-05-05 11:32 41.30105 2.07880 18 ft 3 kts 65°
2026-05-05 11:32 41.30099 2.07863 20 ft 0 kts 65°
2026-05-05 11:35 41.30100 2.07863 20 ft 0 kts 65°
2026-05-05 11:35 41.30108 2.07888 19 ft 7 kts 65°
2026-05-05 11:35 41.30082 2.07962 16 ft 12 kts 153°
2026-05-05 11:35 41.30005 2.08011 17 ft 12 kts 154°
2026-05-05 11:36 41.29928 2.08054 17 ft 12 kts 160°
2026-05-05 11:36 41.29834 2.08100 18 ft 18 kts 158°
2026-05-05 11:36 41.29709 2.08174 16 ft 21 kts 156°
2026-05-05 11:36 41.29577 2.08252 14 ft 20 kts 155°
2026-05-05 11:37 41.29450 2.08329 17 ft 20 kts 155°
2026-05-05 11:37 41.29326 2.08403 20 ft 19 kts 156°
2026-05-05 11:37 41.29206 2.08475 20 ft 19 kts 155°
2026-05-05 11:37 41.29129 2.08522 18 ft 19 kts 155°
2026-05-05 11:38 41.29003 2.08598 18 ft 21 kts 155°
2026-05-05 11:38 41.28896 2.08662 15 ft 10 kts 155°
2026-05-05 11:38 41.28864 2.08731 16 ft 10 kts 75°
2026-05-05 11:38 41.28902 2.08844 15 ft 17 kts 65°
2026-05-05 11:39 41.28968 2.09039 17 ft 29 kts 65°
2026-05-05 11:39 41.29055 2.09294 17 ft 30 kts 65°
2026-05-05 11:39 41.29141 2.09541 17 ft 29 kts 65°
2026-05-05 11:39 41.29220 2.09773 16 ft 27 kts 66°
2026-05-05 11:40 41.29270 2.09926 16 ft 14 kts 66°
2026-05-05 11:40 41.29265 2.10049 14 ft 14 kts 110°
2026-05-05 11:40 41.29236 2.10170 14 ft 14 kts 90°
2026-05-05 11:40 41.29249 2.10280 13 ft 9 kts 116°
2026-05-05 11:41 41.29204 2.10274 16 ft 8 kts 238°
2026-05-05 11:41 41.29145 2.10102 16 ft 49 kts 246°
2026-05-05 11:41 41.28890 2.09362 16 ft 125 kts 246°
2026-05-05 11:41 41.28452 2.08064 157 ft 172 kts 244°
2026-05-05 11:42 41.27922 2.06656 1057 ft 166 kts 230°
2026-05-05 11:42 41.26930 2.05973 1921 ft 170 kts 183°
2026-05-05 11:42 41.25820 2.06485 2615 ft 176 kts 148°
2026-05-05 11:42 41.24626 2.06995 2989 ft 195 kts 190°
2026-05-05 11:43 41.23317 2.06297 3285 ft 212 kts 207°
2026-05-05 11:43 41.21910 2.05481 3636 ft 229 kts 203°
2026-05-05 11:43 41.20399 2.04693 4221 ft 237 kts 202°
2026-05-05 11:43 41.18861 2.03918 5112 ft 236 kts 203°
2026-05-05 11:44 41.17518 2.02684 5886 ft 238 kts 230°
2026-05-05 11:44 41.16705 2.00791 6811 ft 234 kts 251°
2026-05-05 11:44 41.16042 1.98923 7994 ft 221 kts 234°
2026-05-05 11:44 41.15272 1.97104 8669 ft 232 kts 245°
2026-05-05 11:45 41.14613 1.95124 9488 ft 236 kts 244°
2026-05-05 11:45 41.13938 1.93133 10383 ft 237 kts 244°
2026-05-05 11:45 41.13258 1.91134 11228 ft 239 kts 244°
2026-05-05 11:45 41.12574 1.89120 12164 ft 240 kts 243°
2026-05-05 11:46 41.11883 1.87082 13093 ft 245 kts 245°
2026-05-05 11:46 41.11538 1.84830 13859 ft 260 kts 264°
2026-05-05 11:46 41.11633 1.82293 14109 ft 291 kts 271°
2026-05-05 11:46 41.11878 1.79505 14330 ft 319 kts 273°
2026-05-05 11:47 41.12176 1.76473 14553 ft 343 kts 273°
2026-05-05 11:47 41.12493 1.73282 15159 ft 352 kts 273°
2026-05-05 11:47 41.12808 1.70060 16064 ft 352 kts 273°
2026-05-05 11:47 41.13113 1.66843 17040 ft 351 kts 272°
2026-05-05 11:48 41.13527 1.62312 18314 ft 352 kts 272°
2026-05-05 11:48 41.13815 1.59085 19044 ft 354 kts 272°
2026-05-05 11:48 41.14102 1.55826 19756 ft 356 kts 271°
2026-05-05 11:49 41.14387 1.52557 20554 ft 356 kts 271°
2026-05-05 11:49 41.14671 1.49310 21437 ft 354 kts 271°
2026-05-05 11:49 41.14796 1.46050 21997 ft 355 kts 262°
2026-05-05 11:49 41.14460 1.42795 22521 ft 358 kts 255°
2026-05-05 11:50 41.13768 1.39620 23131 ft 359 kts 249°
2026-05-05 11:50 41.12956 1.36477 23748 ft 361 kts 249°
2026-05-05 11:50 41.12125 1.33331 24287 ft 362 kts 249°
2026-05-05 11:50 41.11290 1.30176 24840 ft 363 kts 249°
2026-05-05 11:51 41.10455 1.27009 25369 ft 365 kts 249°
2026-05-05 11:51 41.09619 1.23821 25873 ft 367 kts 249°
2026-05-05 11:51 41.08780 1.20611 26356 ft 369 kts 249°
2026-05-05 11:51 41.07939 1.17386 26860 ft 371 kts 248°
2026-05-05 11:52 41.07102 1.14171 27543 ft 367 kts 248°
2026-05-05 11:52 41.06283 1.11027 28270 ft 364 kts 248°
2026-05-05 11:52 41.05462 1.07876 28952 ft 361 kts 248°
2026-05-05 11:52 41.04645 1.04745 29610 ft 359 kts 248°
2026-05-05 11:53 41.03832 1.01636 30228 ft 356 kts 248°
2026-05-05 11:53 41.03035 0.98591 30746 ft 355 kts 248°
2026-05-05 11:53 41.02227 0.95510 31231 ft 354 kts 248°
2026-05-05 11:53 41.01418 0.92432 31676 ft 354 kts 248°
2026-05-05 11:54 41.00607 0.89347 32092 ft 355 kts 248°
2026-05-05 11:54 40.99792 0.86253 32469 ft 357 kts 248°
2026-05-05 11:54 40.98971 0.83138 32847 ft 359 kts 248°
2026-05-05 11:54 40.98141 0.79995 32908 ft 365 kts 248°
2026-05-05 11:55 40.96473 0.73678 32948 ft 360 kts 248°
2026-05-05 11:55 40.94829 0.67470 32929 ft 358 kts 248°
2026-05-05 11:56 40.93176 0.61247 32928 ft 359 kts 248°
2026-05-05 11:56 40.91601 0.54976 32925 ft 363 kts 254°
2026-05-05 11:57 40.91178 0.48283 32932 ft 371 kts 266°
2026-05-05 11:57 40.91470 0.41494 32924 ft 369 kts 266°
2026-05-05 11:58 40.91773 0.34750 32958 ft 367 kts 266°
2026-05-05 11:58 40.92059 0.28008 32940 ft 367 kts 266°
2026-05-05 11:59 40.92334 0.21277 32942 ft 366 kts 266°
2026-05-05 11:59 40.92601 0.14566 32945 ft 365 kts 266°
2026-05-05 12:00 40.92862 0.07884 32951 ft 364 kts 266°
2026-05-05 12:00 40.93118 0.01209 32950 ft 363 kts 266°
2026-05-05 12:01 40.93370 -0.05479 32959 ft 365 kts 266°
2026-05-05 12:01 40.93618 -0.12135 32945 ft 365 kts 266°
2026-05-05 12:02 40.93864 -0.18830 32946 ft 364 kts 266°
2026-05-05 12:02 40.94106 -0.25511 32952 ft 363 kts 266°
2026-05-05 12:03 40.94343 -0.32173 32948 ft 362 kts 266°
2026-05-05 12:03 40.94575 -0.38833 32949 ft 362 kts 266°
2026-05-05 12:04 40.94804 -0.45496 32944 ft 363 kts 266°
2026-05-05 12:04 40.95029 -0.52167 32950 ft 363 kts 266°
2026-05-05 12:05 40.95251 -0.58850 32944 ft 364 kts 266°
2026-05-05 12:05 40.95469 -0.65533 32950 ft 363 kts 266°
2026-05-05 12:06 40.95683 -0.72206 32949 ft 363 kts 266°
2026-05-05 12:06 40.95893 -0.78882 32981 ft 363 kts 266°
2026-05-05 12:07 40.96100 -0.85563 32966 ft 363 kts 266°
2026-05-05 12:07 40.96302 -0.92240 32974 ft 363 kts 266°
2026-05-05 12:08 40.96501 -0.98914 32980 ft 363 kts 266°
2026-05-05 12:08 40.96695 -1.05579 32963 ft 362 kts 266°
2026-05-05 12:09 40.96886 -1.12239 32987 ft 362 kts 266°
2026-05-05 12:09 40.97072 -1.18915 32986 ft 364 kts 266°
2026-05-05 12:10 40.97255 -1.25613 32983 ft 364 kts 266°
2026-05-05 12:10 40.97435 -1.32306 32984 ft 364 kts 266°
2026-05-05 12:11 40.97610 -1.38960 32982 ft 364 kts 266°
2026-05-05 12:11 40.97782 -1.45648 32980 ft 364 kts 266°
2026-05-05 12:12 40.97950 -1.52334 32976 ft 364 kts 266°
2026-05-05 12:12 40.98114 -1.59036 32988 ft 365 kts 267°
2026-05-05 12:13 40.98275 -1.65765 32988 ft 367 kts 267°
2026-05-05 12:13 40.98433 -1.72522 32976 ft 368 kts 267°
2026-05-05 12:14 40.98587 -1.79290 32982 ft 368 kts 267°
2026-05-05 12:14 40.98738 -1.86059 32979 ft 368 kts 267°
2026-05-05 12:15 40.98884 -1.92827 32995 ft 368 kts 267°
2026-05-05 12:15 40.99026 -1.99603 32991 ft 369 kts 267°
2026-05-05 12:16 40.99165 -2.06392 32987 ft 370 kts 267°
2026-05-05 12:16 40.99300 -2.13194 32988 ft 370 kts 267°
2026-05-05 12:17 40.99431 -2.20001 32984 ft 370 kts 267°
2026-05-05 12:17 40.99558 -2.26806 32989 ft 370 kts 267°
2026-05-05 12:18 40.99681 -2.33634 33001 ft 372 kts 268°
2026-05-05 12:18 40.99801 -2.40480 32991 ft 373 kts 268°
2026-05-05 12:19 40.99917 -2.47346 32995 ft 373 kts 268°
2026-05-05 12:19 41.00030 -2.54222 32993 ft 374 kts 268°
2026-05-05 12:20 41.00138 -2.61101 32990 ft 374 kts 268°
2026-05-05 12:20 41.00241 -2.67941 32994 ft 374 kts 268°
2026-05-05 12:21 41.00341 -2.74831 32982 ft 375 kts 268°
2026-05-05 12:21 41.00437 -2.81737 32977 ft 375 kts 268°
2026-05-05 12:22 41.00529 -2.88653 32982 ft 376 kts 268°
2026-05-05 12:22 41.00617 -2.95571 32982 ft 376 kts 268°
2026-05-05 12:23 41.00702 -3.02503 32982 ft 376 kts 268°
2026-05-05 12:23 41.00781 -3.09438 32974 ft 377 kts 269°
2026-05-05 12:24 41.00857 -3.16388 32980 ft 378 kts 269°
2026-05-05 12:24 41.00929 -3.23366 32969 ft 380 kts 269°
2026-05-05 12:25 41.00998 -3.30357 32975 ft 380 kts 269°
2026-05-05 12:25 41.01051 -3.36170 32969 ft 380 kts 268°
2026-05-05 12:26 41.01111 -3.43152 32986 ft 379 kts 269°
2026-05-05 12:26 41.01167 -3.50133 32975 ft 379 kts 269°
2026-05-05 12:27 41.01219 -3.57121 32977 ft 380 kts 269°
2026-05-05 12:27 41.01266 -3.64109 32984 ft 380 kts 269°
2026-05-05 12:28 41.01310 -3.71098 32986 ft 380 kts 269°
2026-05-05 12:28 41.01349 -3.78086 32985 ft 379 kts 269°
2026-05-05 12:29 41.01387 -3.85083 32996 ft 380 kts 271°
2026-05-05 12:29 41.01414 -3.92081 32992 ft 381 kts 270°
2026-05-05 12:30 41.01439 -3.99099 32991 ft 381 kts 270°
2026-05-05 12:30 41.01463 -4.06072 32993 ft 381 kts 270°
2026-05-05 12:31 41.01483 -4.13087 32999 ft 381 kts 270°
2026-05-05 12:31 41.01683 -4.20084 32997 ft 382 kts 278°
2026-05-05 12:32 41.03140 -4.26844 32995 ft 385 kts 291°
2026-05-05 12:32 41.05514 -4.33211 33033 ft 386 kts 294°
2026-05-05 12:33 41.07926 -4.39588 33003 ft 388 kts 293°
2026-05-05 12:33 41.10318 -4.46001 33001 ft 389 kts 293°
2026-05-05 12:34 41.12706 -4.52447 33006 ft 390 kts 293°
2026-05-05 12:34 41.15096 -4.58916 32991 ft 390 kts 293°
2026-05-05 12:35 41.17474 -4.65381 33011 ft 390 kts 293°
2026-05-05 12:35 41.19839 -4.71853 32991 ft 389 kts 293°
2026-05-05 12:36 41.22193 -4.78309 33005 ft 388 kts 293°
2026-05-05 12:36 41.24538 -4.84752 33006 ft 387 kts 293°
2026-05-05 12:37 41.26866 -4.91160 33009 ft 388 kts 293°
2026-05-05 12:37 41.29211 -4.97630 32989 ft 389 kts 294°
2026-05-05 12:38 41.31554 -5.04098 33002 ft 388 kts 294°
2026-05-05 12:38 41.33897 -5.10578 32998 ft 389 kts 294°
2026-05-05 12:39 41.36236 -5.17067 33008 ft 389 kts 294°
2026-05-05 12:39 41.38573 -5.23560 33002 ft 389 kts 294°
2026-05-05 12:40 41.40904 -5.30055 33000 ft 388 kts 294°
2026-05-05 12:40 41.43227 -5.36543 33001 ft 387 kts 294°
2026-05-05 12:41 41.45541 -5.43020 33010 ft 387 kts 294°
2026-05-05 12:41 41.47846 -5.49487 33001 ft 386 kts 294°
2026-05-05 12:42 41.50144 -5.55944 33007 ft 385 kts 294°
2026-05-05 12:42 41.52103 -5.62558 33000 ft 383 kts 282°
2026-05-05 12:43 41.52644 -5.69623 32995 ft 385 kts 268°
2026-05-05 12:43 41.52147 -5.76743 32998 ft 386 kts 266°
2026-05-05 12:44 41.51594 -5.83860 33005 ft 386 kts 266°
2026-05-05 12:44 41.51060 -5.90978 32999 ft 386 kts 266°
2026-05-05 12:45 41.50535 -5.98102 33009 ft 386 kts 266°
2026-05-05 12:45 41.50009 -6.05228 32999 ft 386 kts 266°
2026-05-05 12:46 41.49479 -6.12353 33001 ft 386 kts 267°
2026-05-05 12:46 41.48946 -6.19466 33008 ft 384 kts 267°
2026-05-05 12:47 41.48681 -6.22956 32992 ft 372 kts 267°
2026-05-05 12:47 41.48422 -6.26359 32754 ft 365 kts 267°
2026-05-05 12:47 41.48168 -6.29692 32428 ft 359 kts 267°
2026-05-05 12:47 41.47914 -6.32986 32111 ft 355 kts 268°
2026-05-05 12:48 41.47664 -6.36239 31749 ft 351 kts 268°
2026-05-05 12:48 41.47415 -6.39461 31409 ft 348 kts 268°
2026-05-05 12:48 41.47167 -6.42657 31069 ft 345 kts 268°
2026-05-05 12:48 41.46920 -6.45826 30732 ft 342 kts 268°
2026-05-05 12:49 41.46675 -6.48964 30375 ft 339 kts 269°
2026-05-05 12:49 41.46432 -6.52078 30052 ft 336 kts 269°
2026-05-05 12:49 41.46190 -6.55160 29670 ft 333 kts 269°
2026-05-05 12:49 41.45949 -6.58214 29337 ft 330 kts 269°
2026-05-05 12:50 41.45709 -6.61240 28988 ft 326 kts 269°
2026-05-05 12:50 41.45472 -6.64230 28642 ft 323 kts 269°
2026-05-05 12:50 41.45236 -6.67199 28300 ft 321 kts 269°
2026-05-05 12:50 41.45001 -6.70148 27960 ft 318 kts 269°
2026-05-05 12:51 41.44771 -6.73027 27642 ft 316 kts 269°
2026-05-05 12:51 41.44535 -6.75964 27292 ft 314 kts 269°
2026-05-05 12:51 41.44306 -6.78810 26965 ft 312 kts 269°
2026-05-05 12:51 41.44075 -6.81673 26643 ft 310 kts 269°
2026-05-05 12:52 41.43844 -6.84524 26282 ft 309 kts 269°
2026-05-05 12:52 41.43613 -6.87359 26007 ft 306 kts 270°
2026-05-05 12:52 41.43384 -6.90169 25680 ft 305 kts 269°
2026-05-05 12:52 41.43154 -6.92971 25364 ft 303 kts 269°
2026-05-05 12:53 41.42926 -6.95754 25048 ft 302 kts 269°
2026-05-05 12:53 41.42698 -6.98530 24739 ft 301 kts 269°
2026-05-05 12:53 41.42470 -7.01296 24429 ft 300 kts 269°
2026-05-05 12:53 41.42241 -7.04057 24124 ft 300 kts 269°
2026-05-05 12:54 41.41783 -7.09577 23471 ft 299 kts 269°
2026-05-05 12:54 41.41553 -7.12335 23096 ft 299 kts 269°
2026-05-05 12:54 41.41323 -7.15083 22761 ft 298 kts 269°
2026-05-05 12:55 41.41092 -7.17826 22438 ft 297 kts 268°
2026-05-05 12:55 41.40862 -7.20547 22134 ft 295 kts 268°
2026-05-05 12:55 41.40633 -7.23259 21796 ft 293 kts 270°
2026-05-05 12:55 41.40405 -7.25941 21510 ft 291 kts 270°
2026-05-05 12:56 41.40180 -7.28577 21224 ft 289 kts 270°
2026-05-05 12:56 41.39955 -7.31232 20918 ft 288 kts 269°
2026-05-05 12:56 41.39729 -7.33876 20618 ft 287 kts 269°
2026-05-05 12:56 41.39504 -7.36519 20310 ft 287 kts 269°
2026-05-05 12:57 41.39278 -7.39154 20005 ft 287 kts 268°
2026-05-05 12:57 41.39051 -7.41792 19696 ft 287 kts 268°
2026-05-05 12:57 41.38823 -7.44427 19390 ft 287 kts 267°
2026-05-05 12:57 41.38359 -7.47032 19082 ft 292 kts 255°
2026-05-05 12:58 41.37443 -7.49512 18606 ft 304 kts 243°
2026-05-05 12:58 41.36293 -7.51887 18235 ft 307 kts 242°
2026-05-05 12:58 41.35122 -7.54253 17891 ft 306 kts 241°
2026-05-05 12:58 41.33951 -7.56615 17552 ft 305 kts 241°
2026-05-05 12:59 41.32787 -7.58969 17231 ft 304 kts 241°
2026-05-05 12:59 41.31634 -7.61312 16921 ft 302 kts 242°
2026-05-05 12:59 41.30488 -7.63646 16641 ft 301 kts 243°
2026-05-05 13:00 41.28216 -7.68283 16024 ft 298 kts 242°
2026-05-05 13:00 41.27087 -7.70588 15730 ft 297 kts 242°
2026-05-05 13:01 41.23715 -7.77469 14833 ft 295 kts 242°
2026-05-05 13:01 41.22595 -7.79752 14542 ft 295 kts 242°
2026-05-05 13:01 41.21479 -7.82024 14226 ft 292 kts 242°
2026-05-05 13:01 41.20375 -7.84269 13957 ft 289 kts 241°
2026-05-05 13:02 41.19372 -7.86307 13655 ft 289 kts 241°
2026-05-05 13:02 41.18275 -7.88535 13334 ft 287 kts 241°
2026-05-05 13:02 41.17287 -7.90814 12983 ft 284 kts 248°
2026-05-05 13:02 41.16458 -7.93186 12650 ft 282 kts 250°
2026-05-05 13:03 41.15670 -7.95551 12362 ft 279 kts 250°
2026-05-05 13:03 41.14889 -7.97894 12081 ft 275 kts 250°
2026-05-05 13:03 41.14245 -7.99805 11852 ft 273 kts 250°
2026-05-05 13:03 41.13679 -8.01473 11642 ft 273 kts 249°
2026-05-05 13:04 41.12899 -8.03753 11360 ft 270 kts 249°
2026-05-05 13:04 41.12130 -8.05989 11095 ft 269 kts 249°
2026-05-05 13:04 41.11353 -8.08239 10816 ft 268 kts 249°
2026-05-05 13:04 41.10578 -8.10476 10541 ft 266 kts 249°
2026-05-05 13:05 41.09796 -8.12727 10263 ft 265 kts 249°
2026-05-05 13:05 41.09042 -8.14889 10108 ft 257 kts 249°
2026-05-05 13:05 41.08298 -8.17025 9922 ft 257 kts 249°
2026-05-05 13:05 41.07535 -8.19217 9648 ft 265 kts 249°
2026-05-05 13:06 41.06756 -8.21456 9367 ft 268 kts 249°
2026-05-05 13:06 41.05974 -8.23691 9079 ft 267 kts 249°
2026-05-05 13:06 41.05196 -8.25913 8813 ft 265 kts 248°
2026-05-05 13:06 41.04422 -8.28122 8534 ft 264 kts 248°
2026-05-05 13:07 41.03650 -8.30324 8250 ft 263 kts 249°
2026-05-05 13:07 41.02890 -8.32516 7983 ft 260 kts 251°
2026-05-05 13:07 41.02420 -8.34804 7712 ft 257 kts 262°
2026-05-05 13:07 41.02081 -8.37142 7436 ft 260 kts 262°
2026-05-05 13:08 41.01722 -8.39498 7154 ft 262 kts 261°
2026-05-05 13:08 41.01354 -8.41858 6881 ft 261 kts 261°
2026-05-05 13:08 41.00986 -8.44169 6616 ft 252 kts 261°
2026-05-05 13:08 41.00630 -8.46367 6512 ft 237 kts 262°
2026-05-05 13:09 41.00318 -8.48290 6384 ft 226 kts 262°
2026-05-05 13:09 41.00015 -8.50303 6112 ft 220 kts 263°
2026-05-05 13:09 40.99723 -8.52292 5701 ft 221 kts 262°
2026-05-05 13:09 40.99430 -8.54267 5392 ft 216 kts 263°
2026-05-05 13:10 40.99147 -8.56189 5105 ft 214 kts 262°
2026-05-05 13:10 40.98862 -8.58136 4947 ft 217 kts 264°
2026-05-05 13:10 40.99055 -8.60068 4807 ft 213 kts 300°
2026-05-05 13:10 41.00065 -8.61405 4771 ft 205 kts 330°
2026-05-05 13:11 41.01391 -8.62055 4642 ft 204 kts 346°
2026-05-05 13:11 41.02772 -8.62419 4357 ft 201 kts 347°
2026-05-05 13:11 41.04140 -8.62762 4106 ft 199 kts 346°
2026-05-05 13:11 41.05492 -8.63109 3832 ft 196 kts 346°
2026-05-05 13:12 41.06818 -8.63448 3583 ft 192 kts 347°
2026-05-05 13:12 41.08118 -8.63779 3337 ft 189 kts 346°
2026-05-05 13:12 41.09400 -8.64106 3088 ft 186 kts 346°
2026-05-05 13:12 41.10663 -8.64431 2835 ft 185 kts 346°
2026-05-05 13:13 41.11916 -8.64755 2610 ft 182 kts 346°
2026-05-05 13:13 41.12739 -8.64969 2442 ft 181 kts 346°
2026-05-05 13:13 41.14372 -8.65395 2123 ft 175 kts 345°
2026-05-05 13:13 41.15537 -8.65698 1894 ft 165 kts 345°
2026-05-05 13:14 41.16617 -8.65977 1720 ft 149 kts 343°
2026-05-05 13:14 41.17282 -8.66150 1540 ft 148 kts 344°
2026-05-05 13:14 41.18280 -8.66412 1357 ft 144 kts 343°
2026-05-05 13:14 41.19214 -8.66660 1194 ft 149 kts 346°
2026-05-05 13:15 41.20243 -8.66926 968 ft 149 kts 343°
2026-05-05 13:15 41.21244 -8.67189 779 ft 147 kts 345°
2026-05-05 13:15 41.22216 -8.67461 552 ft 137 kts 345°
2026-05-05 13:15 41.23157 -8.67700 330 ft 142 kts 345°
2026-05-05 13:16 41.24127 -8.67948 220 ft 135 kts 345°
2026-05-05 13:16 41.24923 -8.68155 192 ft 98 kts 348°